Location: Newark
(48.1500°N, 13.1167°E)
Time: 07:39:55
(UTC+00:00)

KAITUO 1B - Pass Details

Date: 05 December 2021
Orbit: 486 x 507 km, 97.4° (Epoch: 18 January)

Event Time Altitude Azimuth Distance (km) Brightness Sun altitude
Rises 06:00:11 0° 10° (N) 2,632 ? -6.8°
Reaches altitude 10° 06:02:18 10° 7° (N) 1,739 ? -6.5°
Maximum altitude 06:06:00 62° 287° (WNW) 575 ? -6.0°
Drops below altitude 10° 06:09:39 10° 206° (SSW) 1,712 ? -5.4°
Sets 06:11:44 0° 203° (SSW) 2,588 ? -5.1°
